EHI
47 46 47 40 25 16 14 10 6 3 2 1 0 0 0 0 1 2 4 5 4 2 0 0 0 0 0 0 0 0 0 0 1 3 4 3 1 1 2 1 0 0 0
36 33 31 27 19 16 19 16 10 6 5 3 2 1 2 2 2 2 3 3 3 2 1 0 0 0 0 0 0 0 0 0 0 2 4 4 2 2 3 2 0 0 0
18 16 14 12 14 19 25 25 20 19 19 16 11 10 10 9 6 4 2 2 2 2 3 3 2 1 1 1 0 0 0 0 0 1 3 4 2 1 2 1 0 0 0
6 7 8 8 12 19 23 27 32 38 40 35 28 22 19 14 9 5 2 2 3 4 6 9 6 3 2 1 1 2 5 6 5 4 4 4 2 0 0 0 0 0 0
2 3 4 5 7 11 14 19 31 41 42 38 32 24 20 18 16 12 7 6 6 7 8 14 14 7 2 2 2 7 18 26 24 18 16 14 8 3 1 0 0 0 0
1 0 1 1 2 4 6 9 16 22 25 24 19 18 22 26 29 27 21 13 10 8 7 14 19 14 8 4 4 10 23 38 43 39 37 34 23 12 4 1 0 0 0
0 0 0 0 0 1 3 3 4 5 7 8 8 11 18 27 36 38 31 22 12 6 5 9 16 20 17 7 3 7 14 24 36 45 46 42 31 18 7 1 0 0 0
0 0 0 0 0 0 0 0 0 0 0 1 3 5 7 16 26 31 34 31 21 12 6 3 8 16 16 8 3 2 3 6 15 28 35 31 22 12 5 1 0 0 0
0 0 0 0 0 0 0 0 0 0 0 0 0 0 1 5 11 20 28 29 28 22 8 0 3 7 8 7 5 2 0 0 3 10 18 16 9 3 1 0 0 0 0
0 0 0 0 0 0 0 0 0 0 0 0 0 0 0 1 3 9 15 17 20 20 11 5 4 4 6 11 13 7 1 0 0 3 6 7 4 1 0 0 0 0 0
0 0 0 0 0 0 0 0 0 0 0 0 0 0 1 2 1 2 4 8 12 14 16 15 11 9 13 19 19 10 2 0 0 1 2 3 3 1 0 0 0 0 0
0 0 0 0 0 0 0 0 0 0 0 0 0 0 0 1 1 1 1 4 10 18 26 25 20 20 25 26 18 7 1 0 0 0 0 1 2 1 0 0 0 0 0
0 0 0 0 0 0 0 0 0 0 0 0 0 0 0 0 1 2 3 3 10 24 35 35 32 32 33 28 15 2 0 0 0 0 0 0 1 1 0 0 0 0 0
0 0 0 0 0 0 0 0 0 0 0 0 0 0 0 0 1 3 5 7 13 27 42 45 41 36 30 21 9 1 0 0 0 0 0 0 0 0 0 0 0 0 0
0 0 0 0 0 0 0 0 0 0 0 0 0 0 0 0 1 2 6 11 17 31 48 52 40 27 19 10 3 0 0 0 0 0 0 0 0 0 0 0 0 0 0
0 0 0 0 0 0 0 0 0 0 0 0 0 0 0 0 1 2 7 14 23 38 51 46 26 13 6 3 0 0 0 0 0 0 0 0 0 0 0 0 0 0 0
1 1 0 0 0 0 0 0 0 0 0 0 0 0 0 0 1 2 7 15 25 38 42 27 11 4 1 0 0 0 0 0 0 0 0 0 0 0 0 0 0 0 0
3 2 0 0 0 0 0 0 0 0 0 0 0 0 0 0 0 2 7 14 20 26 23 10 2 0 0 0 0 0 0 0 0 0 0 0 0 0 0 0 0 0 0
3 1 0 0 0 0 0 0 0 0 0 0 0 0 0 0 0 1 5 9 11 11 8 3 0 0 0 0 0 0 0 0 0 0 0 0 0 0 0 0 0 0 0
1 1 1 0 0 0 0 0 0 0 0 0 0 0 0 0 0 0 2 3 3 3 1 0 0 0 0 0 0 0 0 0 0 0 0 0 0 0 0 0 0 0 0
0 1 2 1 0 0 0 0 0 0 0 0 0 0 0 0 0 0 0 0 0 0 0 0 0 0 0 0 0 0 0 0 0 0 0 0 0 0 0 0 0 0 0
0 1 2 1 0 0 0 0 0 0 0 0 0 0 0 0 0 0 0 0 0 0 0 0 0 0 0 0 0 0 0 0 0 0 0 0 0 0 0 0 0 0 0
0 0 0 0 0 0 0 0 0 0 0 0 0 0 0 0 0 0 0 0 0 0 0 0 0 0 0 0 0 0 0 0 0 0 0 0 0 0 0 0 0 0 0
0 0 0 0 0 0 0 0 0 0 0 0 0 0 0 0 0 0 0 0 0 0 0 0 0 0 0 0 0 0 0 0 0 0 0 0 0 0 0 0 0 0 0
0 0 0 0 0 0 0 0 0 0 0 0 0 0 0 0 0 0 0 0 0 0 0 0 0 0 0 0 0 0 0 0 0 0 0 0 0 0 0 0 0 0 0
0 0 0 0 0 0 0 0 0 0 0 0 0 0 0 0 0 0 0 0 0 0 0 0 0 0 0 0 0 0 0 0 0 0 0 0 0 0 0 0 0 0 0
Wind_Speed
7 7 7 7 9 8 8 8 9 9 10 10 10 11 11 11 10 9 6 8 12 14 16 17 16 15 14 14 15 15 15 17 18 19 20 20 20 19 18 18 17 16 16
8 8 8 8 9 8 8 7 10 9 9 9 11 11 12 11 10 10 10 9 13 16 17 17 16 15 14 14 14 14 14 14 16 18 19 20 21 21 20 19 19 18 17
8 8 8 9 9 9 9 9 11 9 9 9 11 12 10 10 10 11 11 10 11 14 18 18 17 16 15 15 14 13 13 13 15 16 18 19 20 21 21 20 20 19 19
8 7 7 8 8 7 7 8 9 9 9 9 9 8 8 9 11 11 11 11 10 11 13 19 18 16 15 15 15 14 13 13 15 16 17 18 19 19 20 20 21 20 19
6 5 5 5 7 7 7 8 7 7 9 10 9 9 10 11 12 13 14 14 13 13 13 11 17 17 17 17 16 15 14 14 15 16 18 19 19 19 19 19 20 20 20
4 6 6 6 8 8 8 7 9 9 9 9 11 11 10 11 11 12 14 14 14 15 15 14 12 14 19 18 16 16 16 15 15 16 18 19 20 20 19 19 20 20 20
4 5 7 6 7 8 9 11 11 12 11 9 10 11 12 14 14 12 12 13 14 15 14 13 12 11 9 17 18 17 17 17 16 16 17 18 19 19 20 20 20 20 20
4 5 6 8 8 8 10 11 11 11 11 10 10 11 12 11 12 13 12 13 14 12 13 14 13 11 10 9 9 16 17 18 18 17 16 17 17 17 18 19 19 20 20
5 6 7 9 9 9 9 10 11 13 12 12 12 12 11 11 10 10 13 11 11 11 11 11 11 10 10 9 8 11 14 13 15 17 16 17 17 16 16 18 19 20 21
5 6 8 8 9 9 9 10 10 10 11 11 11 11 13 13 12 10 8 10 11 11 11 8 9 9 9 9 6 0 4 5 6 7 7 8 10 12 14 16 18 19 21
5 6 7 8 9 9 9 10 10 11 10 11 11 11 11 11 14 13 11 9 9 10 9 9 7 7 6 6 3 4 7 5 4 4 2 1 4 6 8 12 16 18 20
4 5 7 8 9 9 9 10 10 12 11 11 11 11 11 10 11 11 13 12 9 7 6 5 5 4 3 2 5 11 10 8 7 7 6 5 4 2 1 4 7 10 14
5 5 7 8 9 9 10 11 11 11 11 11 11 10 11 11 11 10 10 10 9 5 5 4 3 2 3 5 8 11 9 7 7 7 7 8 9 8 8 8 6 5 3
6 6 8 9 10 11 11 10 11 11 10 11 12 12 10 10 10 10 10 9 8 7 6 5 2 3 4 6 8 6 7 7 7 7 8 10 10 11 11 11 11 12 12
6 7 8 10 10 10 11 11 10 11 11 11 11 11 10 10 10 10 10 10 9 7 7 5 4 4 5 6 5 6 6 8 7 8 9 10 11 12 11 12 12 12 12
7 8 9 10 10 10 10 11 11 10 10 10 9 10 10 9 8 9 9 9 9 7 4 3 4 5 6 6 7 7 8 10 10 9 11 12 12 13 13 13 13 14 13
9 9 9 10 10 10 10 10 11 11 10 9 8 8 9 9 7 7 7 7 7 6 5 5 5 6 7 7 6 6 6 7 9 12 13 14 14 14 14 14 14 14 14
11 11 10 10 10 9 9 9 10 9 8 8 7 6 7 6 6 6 5 6 6 6 8 11 7 5 6 7 7 6 7 9 10 14 15 15 14 14 14 13 13 13 13
12 12 11 11 9 8 8 8 7 7 6 6 5 5 5 4 2 1 2 3 4 6 9 11 9 6 6 7 8 9 10 8 11 12 13 14 13 13 12 11 10 10 10
13 14 13 11 10 9 8 7 5 4 4 4 4 4 4 4 4 5 5 6 8 9 9 9 8 7 7 8 8 9 9 8 8 10 9 10 12 13 13 12 12 11 10
14 14 14 12 11 9 7 6 5 3 2 1 2 3 5 7 8 7 6 7 8 7 6 6 7 8 8 8 8 8 9 9 8 8 9 9 9 8 10 12 13 13 12
13 14 14 13 13 9 6 3 6 4 2 1 2 3 5 7 11 12 12 10 7 6 5 5 6 8 8 7 6 7 8 8 7 5 6 6 6 7 8 9 10 10 11
12 12 13 14 14 10 11 9 7 5 4 3 3 3 5 8 9 10 12 11 9 7 2 3 8 8 8 7 6 6 4 5 6 5 5 6 6 7 8 9 9 9 10
10 10 11 13 13 11 14 12 8 8 5 5 4 5 7 8 8 9 10 10 8 8 5 6 8 8 8 6 5 6 7 7 6 3 2 5 6 6 8 8 9 8 8
10 10 10 10 12 11 15 14 11 10 7 6 6 6 6 8 7 7 10 10 10 8 13 16 14 12 11 8 3 4 7 7 7 6 2 3 4 5 6 7 8 9 8
11 10 9 8 10 11 14 16 15 10 9 8 6 5 5 7 6 4 9 10 10 9 10 11 10 9 8 5 2 2 4 5 7 6 3 1 3 3 6 5 4 5 5
Wind_Direction
263 271 276 277 279 280 270 262 270 273 270 266 266 264 262 263 266 269 274 239 220 228 241 247 246 246 242 234 231 232 234 231 224 219 218 220 222 222 224 226 227 227 229
268 273 273 274 272 272 275 273 268 267 266 265 265 267 267 264 261 266 266 262 233 225 233 241 245 247 247 241 236 235 234 230 223 218 218 219 221 222 222 225 227 227 226
268 269 270 268 268 269 268 264 265 260 255 253 254 256 258 260 262 264 265 266 264 234 223 229 236 240 244 246 245 242 233 225 220 218 218 219 221 222 221 220 223 226 226
278 275 270 271 279 278 271 268 265 267 261 255 253 251 248 247 249 252 253 250 255 263 239 218 222 228 236 245 249 247 238 227 221 219 219 220 221 221 221 219 219 223 225
306 294 286 289 287 279 275 274 276 273 272 268 262 250 244 243 239 239 242 245 246 247 256 231 208 216 227 239 244 245 240 233 226 222 221 221 222 221 220 219 218 220 222
328 318 299 303 299 290 286 286 288 277 273 272 271 267 257 247 239 236 237 239 241 242 243 249 232 216 216 226 233 240 242 240 235 229 225 222 221 220 219 218 218 218 219
331 312 307 310 293 289 292 290 286 280 270 267 265 263 255 247 242 238 236 241 242 240 242 243 246 249 226 211 218 229 238 242 243 239 233 227 222 218 217 217 216 217 217
316 305 310 298 295 293 283 279 277 277 276 266 261 267 264 252 236 234 233 234 241 242 240 236 237 239 250 250 221 214 229 240 246 247 243 235 227 220 217 216 214 215 216
301 305 298 296 299 291 288 288 285 277 274 270 257 255 263 260 257 237 225 230 236 241 244 243 237 236 237 246 253 216 215 230 244 248 245 236 229 224 220 218 216 214 214
295 298 295 293 287 283 280 276 274 273 271 269 263 250 253 273 276 264 230 222 226 233 240 236 235 231 235 243 233 140 170 210 231 237 234 227 223 222 222 222 222 219 216
283 293 300 299 293 288 290 288 283 275 268 266 268 265 253 248 251 258 258 243 218 220 224 224 234 240 239 245 247 116 110 112 104 94 91 162 209 217 222 226 228 226 222
290 298 304 301 295 297 298 293 288 280 273 270 267 264 258 250 243 241 245 247 242 230 218 222 227 226 227 201 117 108 104 98 92 86 79 74 75 85 197 220 228 231 231
305 321 313 304 301 301 297 294 289 282 278 273 268 263 259 254 256 257 253 251 250 233 205 207 204 178 154 123 114 112 101 96 93 90 85 78 72 66 61 62 63 59 42
307 319 303 298 298 298 299 297 289 282 277 273 268 265 262 257 250 246 245 245 240 224 205 184 139 136 121 117 107 111 97 84 88 93 91 87 81 74 68 65 62 60 57
285 290 295 295 296 299 301 298 289 287 280 274 270 264 258 256 249 244 239 235 232 221 201 167 133 116 117 109 115 97 89 78 84 94 95 92 88 80 73 69 66 64 62
274 277 282 288 294 297 298 296 293 289 285 280 276 273 266 259 252 244 235 229 225 225 195 137 123 122 116 112 106 100 93 85 77 93 99 96 90 85 80 75 71 67 64
266 264 270 280 287 292 296 296 294 297 295 292 288 282 277 269 257 247 238 228 219 210 168 114 108 118 121 124 123 124 116 95 84 89 99 98 94 89 85 80 76 72 69
260 256 259 268 277 283 290 294 299 305 305 304 305 304 298 284 263 249 233 222 207 189 154 133 128 133 137 133 134 131 113 101 97 92 95 97 94 89 85 81 77 73 69
264 257 251 255 262 270 279 287 294 303 310 320 332 332 329 319 293 224 173 152 140 134 131 132 135 140 144 145 141 122 110 114 109 112 107 103 99 97 92 88 84 78 73
272 257 247 246 247 252 261 271 280 295 314 333 351 359 11 25 56 84 91 98 107 112 118 127 133 142 148 159 149 136 129 123 121 119 110 115 118 109 95 85 81 77 72
278 262 247 237 234 236 240 248 254 255 280 345 27 34 51 64 71 82 93 97 100 104 114 130 142 150 157 167 156 139 124 123 121 129 137 140 141 123 107 95 80 70 67
287 271 252 236 226 224 166 201 262 225 204 134 84 78 96 96 92 92 93 88 92 117 139 153 155 146 146 147 134 139 146 143 129 126 127 117 111 98 87 83 74 71 67
298 282 263 243 229 208 169 195 231 244 193 147 117 110 102 108 118 116 107 100 84 64 88 131 122 122 123 121 139 142 123 118 106 131 149 128 123 110 102 92 86 76 66
296 293 279 259 238 206 180 192 202 227 195 160 135 122 120 125 124 132 131 120 98 59 50 91 102 102 100 95 93 101 112 117 122 123 179 140 138 131 122 113 110 94 81
285 288 287 277 252 215 184 187 195 207 190 175 152 136 136 128 124 136 134 125 112 94 70 72 74 78 66 50 23 164 169 175 148 134 148 139 141 146 136 131 136 142 128
275 278 279 281 270 239 191 184 195 208 183 173 155 138 110 125 141 163 153 144 133 125 121 111 103 109 105 99 32 300 215 187 148 133 108 175 141 169 144 127 120 143 150